Weather past 2 weeks in Saint-Pierre, Saint Pierre and Miquelon

Now
61 °F

Fog.


Feels Like: 61 °F
Forecast: 61 / 65 °F
Wind: 8 mph from South

Location: Saint-Pierre

Current Time: Jul 24, 2014 at 11:50:52 PM

Latest Report: Jul 24, 2014 at 11:00 PM


Visibility: 0 mi

Pressure: 29.86 "Hg

Humidity: 100%

Dew point: 61 °F

Location of Saint-PierreLocation

Historic Weather in Saint-Pierre — Graph

°F

Saint-Pierre temperature yesterday

Maximum temperature yesterday: 68 °F (at 5:00 PM)
Minimum temperature yesterday: 59 °F (at 10:00 PM)
Average temperature yesterday: 65 °F

Past Weeks' High & Low Weather Summary

 TemperatureHumidityPressure
High73 °F (Jul 19, 2:00 PM)100% (Jul 9, 10:00 PM)30.27 "Hg (Jul 9, 10:00 PM)
Low52 °F (Jul 13, 6:00 AM)44% (Jul 20, 5:00 PM)29.77 "Hg (Jul 24, 6:00 AM)
Average62 °F89%30.05 "Hg
* Reported Jul 9 10:00 PM — Jul 24 10:00 PM, Saint-Pierre, Weather by CustomWeather, © 2014

Note: Actual official high and low records may vary slightly from our data, if they occured in-between our weather recording intervals... More about our weather records

Advertising

Saint-Pierre weather history for previous 24 hours

 ConditionsComfort  
Time TempWeatherWind HumidityBarometerVisibility
10:00 PM
Jul 24
61 °FFog.5 mph100%29.86 "Hg1 mi
9:00 PM61 °FFog.5 mph100%29.86 "Hg2 mi
7:00 PM63 °FFog.7 mph94%29.86 "Hg1 mi
6:00 PM64 °FBroken clouds.6 mph88%29.86 "HgN/A
5:00 PM64 °FPartly sunny.12 mph94%29.86 "HgN/A
4:00 PM64 °FBroken clouds.15 mph94%29.86 "HgN/A
3:00 PM64 °FFog.20 mph94%29.86 "Hg1 mi
2:00 PM64 °FFog.13 mph94%29.86 "Hg1 mi
1:00 PM64 °FFog.13 mph94%29.86 "Hg1 mi
12:00 PM63 °FFog.12 mph94%29.86 "Hg1 mi
11:40 AM63 °FFog.10 mph94%29.83 "Hg1 mi
11:00 AM63 °FLow clouds.14 mph94%29.83 "Hg3 mi
10:00 AM63 °FLow clouds.14 mph94%29.83 "Hg5 mi
9:00 AM64 °FPassing clouds.14 mph88%29.80 "Hg6 mi
8:00 AM63 °FScattered clouds.13 mph94%29.80 "Hg5 mi
7:00 AM61 °FPassing clouds.14 mph100%29.80 "Hg4 mi
6:00 AM61 °FPassing clouds.13 mph94%29.77 "Hg4 mi
Weather by CustomWeather, © 2014

See weather overviewHow to use our weather pages